STARLINK-32873, 62857

Orbit data source: Space-Track

STARLINK-32873, 62857 is a payload satellite owned by SpaceX/Seattle (US) in LEO that was launched on Sat, 01 Feb 2025 UTC via an FALCON 9 launch vehicle from the Air Force Western Test Range (AFWTR). Payload-class satellites include a variety of spacecraft equipped with specific instruments for various scientific and technological missions. These include communications satellites like Starlink; space stations such as the ISS; scientific satellites like the Hubble; Earth observation satellites from companies like Planet Labs, Umbra, and HawkEye 360; GPS; miniature CubeSats for education and research; and military/defense satellites.

Loading next visibility...
Identifier
62857, 2025-022D
Orbit
LEO
Country
Flag of USUS
Related business
Manufacturer
SpaceX/Seattle
Mission
Operational spacecraft
Bus & Motor
STARLINK V2M, Unknown motor
Mass
730 kg wet, ~700 kg dry
Launch date (UTC)
2025-02-01 (9 months ago)
Launch vehicle
FALCON 9
Launch site
Air Force Western Test Range (AFWTR)
Object type
Payload
Rocket body
Debris
Shape & HBR
Unknown shape, 17.7 m
Radar Cross Section
Large (>1 m²)

Expand to show TLE details & history
Last TLE update: 11 hours ago

TLE from 11 hours ago
0 STARLINK-32873
1 62857U 25022D   25304.60949691  .00044733  00000-0  15147-2 0  9998
2 62857  53.1585   9.4460 0001393  89.3664 270.7496 15.30171069 42130
Epoch: 2025-10-31T14:37Z
TLE epoch observation values (Epoch: 2025-10-31T14:37:40.533Z)
Latitude
-0.00003°
Longitude
109.87562°
Altitude
476.189 km
Speed
7.629 km/s
True Right ascension
00h 37m 47s
True Declination
0° 00' 00"
Sunlit
Object was in full shadow at epoch
Visualization orbit readout
Latitude
Unknown
Longitude
Unknown
Altitude
Unknown
Speed
Unknown
Apparent Right ascension
Unknown
Apparent Declination
Unknown
Sunlit
N/A
Visualization observer readout
Local Sidereal Time
21:01:46
Azimuth
Unknown
Elevation
Unknown
Doppler factor
Unknown
Orbital elements
Apogee altitude
476.513 km
Perigee altitude
474.603 km
Semi-major axis
6,853.695 km
Eccentricity
0.00014
Inclination
53.1585°
RAAN
9.446°
Arg. of periapsis
89.3664°
True anomaly
270.73364°
Mean anomaly
270.7496°
Eccentric anomaly
270.74162°
Mean motion
3.82522 °/min
Orbital period
94.11 mins
BSTAR
0.0015147
Loading maneuver chart data...
Computing Atmospheric mass density...
Loading historical data...
Loading historical data...
Loading historical data...
Loading historical data...
Loading historical data...
Loading historical data...
Loading historical data...

Documentation

Showing up to 5 results
|